Regional Weather Roundup
Issued by NWS

Home | Current Version | Previous Version | Graphics & Text | Print | Product List | Glossary Off
Versions: 1 2 3 4 5 6 7 8 9 10 11 12 13 14 15 16 17 18 19 20 21 22 23 24 25 26 27 28 29 30 31 32 33 34 35 36 37 38 39 40 41 42 43 44 45 46 47 48 49 50

000
ASUS43 KMKX 061259
RWRWI

WISCONSIN REGIONAL WEATHER ROUNDUP
NATIONAL WEATHER SERVICE MILWAUKEE/SULLIVAN WI
700 AM CST FRI MAR 06 2015

NOTE: "FAIR" INDICATES FEW OR NO CLOUDS BELOW 12,000 FEET WITH NO
SIGNIFICANT WEATHER AND/OR OBSTRUCTIONS TO VISIBILITY.

WIZ001-002-006>008-014>016-023>028-061400-
NORTHWEST WISCONSIN

CITY           SKY/WX    TMP DP  RH WIND       PRES   REMARKS
SUPERIOR ARPT  CLOUDY    15   5  64 SW9       30.01S WCI   3
ASHLAND        CLOUDY    11   0  61 S16G23    30.01F WCI  -6
HAYWARD        CLOUDY    10   0  63 S15       30.02F WCI  -7
SIREN          CLOUDY    15   3  59 S8G16     30.04F WCI   4
CUMBERLAND     CLOUDY     7   0  72 S8        30.06F WCI  -6
RICE LAKE      CLOUDY     7   0  71 SE6       30.09F WCI  -3
CHETEK         MOCLDY     1  -3  80 E3        30.10F
LADYSMITH      MOCLDY     5  -2  73 S5        30.11F WCI  -4
EAU CLAIRE     NOT AVBL
MENOMONIE      CLEAR     11   0  60 S10G17    30.13F WCI  -3
NEW RICHMOND   MOCLDY    11   2  65 S7        30.09F WCI   1
OSCEOLA        CLOUDY    13   4  66 S5        30.11F WCI   5
$$

WIZ003>005-009-010-017-018-061400-
NORTH CENTRAL WISCONSIN

CITY           SKY/WX    TMP DP  RH WIND       PRES   REMARKS
MANITOWISH WTR PTCLDY    -3  -7  81 S6        30.02F WCI -15
ARBOR VITAE    MOCLDY     1  -4  77 S9        30.04F WCI -14
WOODRUFF       MOCLDY     1  -4  77 S9        30.04F WCI -14
RHINELANDER    CLOUDY     4  -4  69 SW10      30.06F WCI -11
EAGLE RIVER    PTCLDY     0  -6  76 CALM      30.04F
LAND O LAKES   CLEAR      0  -4  81 S7        30.03F WCI -13
PHILLIPS       CLOUDY     3  -3  74 S9        30.06F WCI -11
TOMAHAWK       MOCLDY    -1  -6  80 CALM      30.10F
MEDFORD        CLOUDY     5  -3  71 S12G17    30.10F WCI -11
MERRILL        MOCLDY     2  -4  75 CALM      30.12F
$$

WIZ029-030-035-036-043>047-061400-
CENTRAL WISCONSIN

CITY           SKY/WX    TMP DP  RH WIND       PRES   REMARKS
WAUSAU         PTCLDY    -1  -5  82 S9        30.14F WCI -16
MOSINEE        CLEAR     -2  -6  84 S12       30.16F WCI -20
MARSHFIELD     CLOUDY     1  -5  75 S12       30.14F WCI -16
STEVENS POINT  PTCLDY     0  -6  76 S10       30.20F WCI -16
WAUPACA        PTCLDY     2  -5  72 S6        30.25F WCI  -9
WAUTOMA        NOT AVBL
WISC RAPIDS    PTCLDY     0  -7  72 S7        30.20F WCI -13
CAMP DOUGLAS   NOT AVBL
$$

WIZ011>013-019>022-031-037>040-048>050-061400-
NORTHEAST WISCONSIN

CITY           SKY/WX    TMP DP  RH WIND       PRES   REMARKS
ANTIGO         PTCLDY    -4  -8  83 SW7       30.13F WCI -18
SHAWANO        PTCLDY     1  -6  71 CALM      30.25F
OCONTO         CLEAR      2  -6  72 SW5       30.26F WCI  -8
STURGEON BAY   CLEAR      3  -8  60 SW13      30.25F WCI -14
GREEN BAY      PTCLDY     2  -5  72 S12       30.26F WCI -15
MANITOWOC      NOT AVBL
APPLETON       MOCLDY     1  -8  66 S8        30.26F WCI -12
CLINTONVILLE   PTCLDY     1  -6  71 S8        30.24F WCI -12
OSHKOSH        PTCLDY     3  -5  69 S12       30.27F WCI -13
$$

WIZ032>034-041-042-053>061-061400-
SOUTHWEST WISCONSIN

CITY           SKY/WX    TMP DP  RH WIND       PRES   REMARKS
LA CROSSE      MOCLDY     8  -1  66 S9        30.21F WCI  -5
SPARTA         PTCLDY     8  -1  66 CALM      30.22F
VIROQUA        MOCLDY     5  -2  75 S12       30.18F WCI -11
BOSCOBEL       CLOUDY    -3  -9  75 CALM      30.28F
PRAIRIE DU CHI CLOUDY     8  -2  66 E8        30.26F WCI  -5
PLATTEVILLE    PTCLDY     4  -2  76 SE10      30.29F WCI -12
$$

WIZ056-057-062-063-064-067-068-061400-
SOUTH CENTRAL WISCONSIN

CITY           SKY/WX    TMP DP  RH WIND       PRES   REMARKS
REEDSBURG      PTCLDY     4  -3  73 SW6       30.26F WCI  -7
BARABOO/DELLS  PTCLDY     6  -2  68 S9        30.25F WCI  -8
LONE ROCK      NOT AVBL
MINERAL POINT  PTCLDY     1  -4  78 SE7       30.27F WCI -11
MADISON        PTCLDY     3  -5  69 S8        30.31F WCI -10
MIDDLETON      PTCLDY     5  -4  66 S10       30.30F WCI -10
WATERTOWN      PTCLDY    -2  -7  81 CALM      30.34F
MONROE         PTCLDY     1  -2  85 S16       30.31F WCI -18
JANESVILLE     CLEAR      1  -6  71 S6        30.37F WCI -10
$$

WIZ051-052-058>065-066-070>072-061400-
SOUTHEAST WISCONSIN

CITY           SKY/WX    TMP DP  RH WIND       PRES   REMARKS
MILWAUKEE      MOCLDY     2  -7  66 SW14      30.37F WCI -16
WAUKESHA       PTCLDY     0  -6  78 SW6       30.35F WCI -12
MILWAUKEE/TIMM CLEAR      3  -6  66 SW7G16    30.36F WCI  -9
RACINE         PTCLDY     3  -5  69 SW10      30.40S WCI -12
BURLINGTON     PTCLDY    -8 -13  79 S3        30.37F
KENOSHA        FAIR       3  -4  72 SW12      30.38F WCI -13
FOND DU LAC    CLEAR      5  -4  66 S14       30.28F WCI -12
SHEBOYGAN      CLEAR      2  -6  69 SW12      30.31F WCI -15
WEST BEND      PTCLDY     5  -4  66 SW9       30.31F WCI  -9
JUNEAU         PTCLDY     0  -6  77 S12       30.32F WCI -18
$$

LSZ147-162-061400-
LAKE SUPERIOR

STATION/POSITION TIME  TEMP    WIND        PRES    WAVE
                       AIR SEA DIR/SP/G            HT/PER
                 (UTC) (F)     (DEG/KT/KT) (MB)    (FT/S)
DEVILS ISLAND    1200   14     230/ 17/ 20 1017.1F
PORT WING        1240   14     210/ 10/ 14 1016.3F
SAXON HARBOR     1200   14     200/ 12/ 19 1016.6F
$$

LMZ867-665-643>646-061400-
LAKE MICHIGAN

STATION/POSITION TIME  TEMP    WIND        PRES    WAVE
                       AIR SEA DIR/SP/G            HT/PER
                 (UTC) (F)     (DEG/KT/KT) (MB)    (FT/S)
NORTHPORT PIER   1200    6     180/  3/ 12 1024.4F
SISTER BAY       1043    6     230/ 13/ 18   N/A
KEWAUNEE LAKESHO 1200    4     220/  6/  9 1025.4F
SHEBOYGAN LAKESH 1200    5     210/ 10/ 11 1029.4F
PORT WASHINGTON  1240    6     240/ 10/ 14 1028.4F
MILWAUKEE LAKESH 1200    6     240/ 15/ 18   N/A
KENOSHA   LAKESH 1200    4     200/  7/ 12 1029.1F
$$

TC  - TEMPERATURE IN CELSIUS
VSB - VISIBILITY IN STATUTE MILES
WCI - WIND CHILL INDEX
HX  - HEAT INDEX



USA.gov is the U.S. government's official web portal to all federal, state and local government web resources and services.